BTY01MC GCRR-LEZL

Flight info

Callsign BTY01MC
Flight time 1h 35m
Altitude 38000
Route KORAL UG5 SONSO DCT NIRAL UN871 ADUBI DCT VJF
Aircraft B738/M-SDE2E3FGHIRWXY/LB1

Departure

Time 2026-04-23 19:10
Airport César Manrique-Lanzarote Airport (GCRR)

Arrival

Time 2026-04-23 20:45
Airport Seville Airport (LEZL)
Time Latitude Longitude Altitude Speed Heading
2026-04-23 18:51 28.94994 -13.60558 37 ft 0 kts 296°
2026-04-23 19:02 28.94995 -13.60559 37 ft 1 kts 296°
2026-04-23 19:02 28.95000 -13.60609 37 ft 12 kts 254°
2026-04-23 19:02 28.94922 -13.60672 36 ft 13 kts 165°
2026-04-23 19:03 28.94871 -13.60590 36 ft 13 kts 130°
2026-04-23 19:03 28.94789 -13.60590 35 ft 12 kts 198°
2026-04-23 19:03 28.94713 -13.60636 34 ft 12 kts 204°
2026-04-23 19:03 28.94638 -13.60680 33 ft 13 kts 210°
2026-04-23 19:04 28.94554 -13.60728 31 ft 15 kts 203°
2026-04-23 19:04 28.94457 -13.60782 30 ft 16 kts 206°
2026-04-23 19:04 28.94350 -13.60842 28 ft 18 kts 207°
2026-04-23 19:04 28.94236 -13.60912 27 ft 19 kts 207°
2026-04-23 19:05 28.94114 -13.60983 27 ft 20 kts 207°
2026-04-23 19:05 28.93993 -13.61053 24 ft 19 kts 207°
2026-04-23 19:05 28.93875 -13.61118 22 ft 19 kts 205°
2026-04-23 19:05 28.93761 -13.61183 20 ft 18 kts 209°
2026-04-23 19:06 28.93667 -13.61216 19 ft 0 kts 156°
2026-04-23 19:06 28.93667 -13.61215 19 ft 0 kts 156°
2026-04-23 19:08 28.93666 -13.61215 19 ft 1 kts 156°
2026-04-23 19:08 28.93624 -13.61163 18 ft 20 kts 120°
2026-04-23 19:08 28.93634 -13.61049 20 ft 0 kts 36°
2026-04-23 19:09 28.93820 -13.60939 23 ft 68 kts 26°
2026-04-23 19:10 28.94466 -13.60569 32 ft 137 kts 27°
2026-04-23 19:10 28.95427 -13.60017 427 ft 164 kts 24°
2026-04-23 19:10 28.96443 -13.59274 1076 ft 186 kts 37°
2026-04-23 19:10 28.97494 -13.58308 1680 ft 200 kts 35°
2026-04-23 19:11 28.98649 -13.57331 2104 ft 217 kts 34°
2026-04-23 19:11 28.99896 -13.56298 2684 ft 226 kts 32°
2026-04-23 19:11 29.01165 -13.55092 3039 ft 252 kts 45°
2026-04-23 19:11 29.02271 -13.53497 3847 ft 259 kts 48°
2026-04-23 19:12 29.03017 -13.52405 4365 ft 265 kts 48°
2026-04-23 19:12 29.04560 -13.50190 5533 ft 268 kts 47°
2026-04-23 19:12 29.05748 -13.48509 6294 ft 276 kts 46°
2026-04-23 19:12 29.06956 -13.46805 7062 ft 280 kts 47°
2026-04-23 19:13 29.08198 -13.45061 7738 ft 287 kts 47°
2026-04-23 19:13 29.09497 -13.43304 8426 ft 293 kts 39°
2026-04-23 19:13 29.11215 -13.42111 9172 ft 291 kts 21°
2026-04-23 19:13 29.13072 -13.41149 9925 ft 297 kts 20°
2026-04-23 19:14 29.14974 -13.40160 10487 ft 309 kts 21°
2026-04-23 19:14 29.17006 -13.39095 10663 ft 334 kts 21°
2026-04-23 19:14 29.19177 -13.37943 10875 ft 355 kts 21°
2026-04-23 19:14 29.21447 -13.36726 11384 ft 365 kts 21°
2026-04-23 19:15 29.23758 -13.35482 11952 ft 370 kts 21°
2026-04-23 19:15 29.26072 -13.34211 12055 ft 370 kts 26°
2026-04-23 19:15 29.28079 -13.32351 12089 ft 378 kts 48°
2026-04-23 19:15 29.29625 -13.29904 12092 ft 382 kts 53°
2026-04-23 19:16 29.31107 -13.27391 12081 ft 381 kts 54°
2026-04-23 19:16 29.32592 -13.24880 12081 ft 381 kts 53°
2026-04-23 19:16 29.34091 -13.22389 12081 ft 380 kts 53°
2026-04-23 19:17 29.37108 -13.17438 12072 ft 379 kts 53°
2026-04-23 19:17 29.38616 -13.14964 12086 ft 379 kts 53°
2026-04-23 19:17 29.40124 -13.12489 12074 ft 379 kts 53°
2026-04-23 19:17 29.41629 -13.10015 12083 ft 380 kts 53°
2026-04-23 19:18 29.43138 -13.07532 12083 ft 380 kts 53°
2026-04-23 19:18 29.44645 -13.05051 12081 ft 380 kts 53°
2026-04-23 19:18 29.46155 -13.02563 12077 ft 381 kts 53°
2026-04-23 19:18 29.47667 -13.00072 12111 ft 384 kts 53°
2026-04-23 19:19 29.50741 -12.95001 13433 ft 390 kts 53°
2026-04-23 19:19 29.52293 -12.92439 14085 ft 394 kts 53°
2026-04-23 19:20 29.55451 -12.87218 15265 ft 403 kts 53°
2026-04-23 19:20 29.57055 -12.84564 15865 ft 407 kts 53°
2026-04-23 19:20 29.58675 -12.81880 16458 ft 412 kts 53°
2026-04-23 19:20 29.60311 -12.79168 17044 ft 416 kts 53°
2026-04-23 19:21 29.61963 -12.76428 17614 ft 421 kts 53°
2026-04-23 19:21 29.65338 -12.70825 18607 ft 432 kts 53°
2026-04-23 19:21 29.67049 -12.67981 19138 ft 435 kts 53°
2026-04-23 19:22 29.68769 -12.65119 19669 ft 437 kts 52°
2026-04-23 19:22 29.70502 -12.62236 20165 ft 441 kts 52°
2026-04-23 19:22 29.74010 -12.56389 21145 ft 448 kts 52°
2026-04-23 19:23 29.75772 -12.53424 21617 ft 452 kts 51°
2026-04-23 19:23 29.77546 -12.50427 22088 ft 456 kts 51°
2026-04-23 19:23 29.79330 -12.47407 22543 ft 459 kts 51°
2026-04-23 19:24 29.82937 -12.41295 23486 ft 466 kts 51°
2026-04-23 19:24 29.84760 -12.38205 23877 ft 469 kts 51°
2026-04-23 19:24 29.88442 -12.31959 24586 ft 475 kts 51°
2026-04-23 19:25 29.92166 -12.25631 25303 ft 481 kts 51°
2026-04-23 19:25 29.95935 -12.19214 25970 ft 487 kts 51°
2026-04-23 19:26 29.99749 -12.12717 26612 ft 493 kts 51°
2026-04-23 19:26 30.01765 -12.09531 26928 ft 491 kts 44°
2026-04-23 19:27 30.06544 -12.03975 27548 ft 490 kts 37°
2026-04-23 19:27 30.14040 -11.95824 28393 ft 498 kts 37°
2026-04-23 19:28 30.19058 -11.90260 28957 ft 504 kts 37°
2026-04-23 19:28 30.24105 -11.84598 29494 ft 509 kts 37°
2026-04-23 19:29 30.26641 -11.81742 29764 ft 511 kts 37°
2026-04-23 19:29 30.31744 -11.75989 30325 ft 514 kts 37°
2026-04-23 19:30 30.36832 -11.70244 31084 ft 509 kts 37°
2026-04-23 19:30 30.39359 -11.67388 31442 ft 508 kts 37°
2026-04-23 19:30 30.44403 -11.61689 32081 ft 508 kts 37°
2026-04-23 19:31 30.46929 -11.58834 32310 ft 509 kts 37°
2026-04-23 19:31 30.49456 -11.55975 32597 ft 509 kts 37°
2026-04-23 19:31 30.51975 -11.53122 32953 ft 507 kts 37°
2026-04-23 19:31 30.54486 -11.50274 33320 ft 505 kts 37°
2026-04-23 19:32 30.56975 -11.47448 33635 ft 504 kts 37°
2026-04-23 19:32 30.59462 -11.44599 33901 ft 504 kts 37°
2026-04-23 19:32 30.61961 -11.41757 34163 ft 503 kts 37°
2026-04-23 19:32 30.64456 -11.38926 34408 ft 503 kts 37°
2026-04-23 19:33 30.66952 -11.36095 34638 ft 502 kts 37°
2026-04-23 19:33 30.69448 -11.33261 34850 ft 503 kts 37°
2026-04-23 19:33 30.74439 -11.27580 35215 ft 504 kts 37°
2026-04-23 19:34 30.76940 -11.24727 35431 ft 506 kts 37°
2026-04-23 19:34 30.79446 -11.21865 35599 ft 506 kts 37°
2026-04-23 19:34 30.84451 -11.16138 36085 ft 504 kts 37°
2026-04-23 19:35 30.86944 -11.13281 36309 ft 504 kts 37°
2026-04-23 19:35 30.89437 -11.10424 36489 ft 504 kts 38°
2026-04-23 19:35 30.91928 -11.07566 36680 ft 504 kts 38°
2026-04-23 19:35 30.94421 -11.04706 36893 ft 504 kts 38°
2026-04-23 19:36 30.96909 -11.01848 37103 ft 503 kts 38°
2026-04-23 19:36 30.99388 -10.98997 37348 ft 501 kts 38°
2026-04-23 19:36 31.01859 -10.96153 37599 ft 500 kts 38°
2026-04-23 19:36 31.04325 -10.93314 37793 ft 499 kts 38°
2026-04-23 19:37 31.06789 -10.90476 38003 ft 499 kts 38°
2026-04-23 19:37 31.11734 -10.84777 38071 ft 503 kts 38°
2026-04-23 19:38 31.16685 -10.79057 38070 ft 500 kts 38°
2026-04-23 19:38 31.21601 -10.73365 38072 ft 497 kts 38°
2026-04-23 19:39 31.26483 -10.67704 38059 ft 493 kts 38°
2026-04-23 19:39 31.31317 -10.62092 38069 ft 489 kts 38°
2026-04-23 19:40 31.36118 -10.56513 38042 ft 486 kts 38°
2026-04-23 19:40 31.40896 -10.50954 38074 ft 485 kts 39°
2026-04-23 19:41 31.45668 -10.45391 38081 ft 485 kts 39°
2026-04-23 19:41 31.50447 -10.39814 38077 ft 487 kts 39°
2026-04-23 19:42 31.55240 -10.34209 38078 ft 489 kts 39°
2026-04-23 19:42 31.60050 -10.28576 38080 ft 491 kts 39°
2026-04-23 19:43 31.64881 -10.22909 38080 ft 493 kts 39°
2026-04-23 19:43 31.69731 -10.17211 38075 ft 496 kts 40°
2026-04-23 19:44 31.74599 -10.11480 38079 ft 497 kts 40°
2026-04-23 19:44 31.79474 -10.05734 38070 ft 498 kts 40°
2026-04-23 19:45 31.84350 -9.99977 38073 ft 497 kts 40°
2026-04-23 19:45 31.89215 -9.94223 38070 ft 496 kts 40°
2026-04-23 19:46 31.94067 -9.88476 38071 ft 495 kts 40°
2026-04-23 19:46 31.98901 -9.82742 38059 ft 494 kts 41°
2026-04-23 19:47 32.02919 -9.77969 38078 ft 492 kts 41°
2026-04-23 19:47 32.08521 -9.71304 38068 ft 491 kts 41°
2026-04-23 19:48 32.13306 -9.65602 38071 ft 489 kts 41°
2026-04-23 19:48 32.18082 -9.59900 38066 ft 489 kts 41°
2026-04-23 19:49 32.22846 -9.54205 38072 ft 488 kts 41°
2026-04-23 19:49 32.27609 -9.48502 38099 ft 489 kts 41°
2026-04-23 19:50 32.32377 -9.42783 38071 ft 490 kts 42°
2026-04-23 19:50 32.37151 -9.37049 38068 ft 491 kts 42°
2026-04-23 19:51 32.41931 -9.31297 38071 ft 492 kts 42°
2026-04-23 19:51 32.46727 -9.25518 38070 ft 493 kts 42°
2026-04-23 19:52 32.50728 -9.20688 38074 ft 494 kts 42°
2026-04-23 19:52 32.56342 -9.13901 38111 ft 496 kts 43°
2026-04-23 19:53 32.61170 -9.08054 38049 ft 497 kts 43°
2026-04-23 19:53 32.65999 -9.02196 38055 ft 497 kts 43°
2026-04-23 19:54 32.70818 -8.96340 38064 ft 496 kts 43°
2026-04-23 19:54 32.75621 -8.90493 38061 ft 495 kts 43°
2026-04-23 19:55 32.80407 -8.84658 38059 ft 493 kts 43°
2026-04-23 19:55 32.85178 -8.78833 38098 ft 492 kts 44°
2026-04-23 19:56 32.89938 -8.73011 38066 ft 491 kts 44°
2026-04-23 19:56 32.94676 -8.67207 38061 ft 489 kts 44°
2026-04-23 19:57 32.99401 -8.61408 38064 ft 488 kts 44°
2026-04-23 19:57 33.03329 -8.56580 38070 ft 487 kts 44°
2026-04-23 19:58 33.08816 -8.49825 38073 ft 487 kts 44°
2026-04-23 19:58 33.13517 -8.44027 38061 ft 487 kts 44°
2026-04-23 19:59 33.18228 -8.38222 38068 ft 488 kts 42°
2026-04-23 19:59 33.23575 -8.33365 38070 ft 483 kts 28°
2026-04-23 20:00 33.29288 -8.29161 38073 ft 484 kts 28°
2026-04-23 20:00 33.35025 -8.24938 38071 ft 486 kts 28°
2026-04-23 20:01 33.40763 -8.20644 38068 ft 488 kts 28°
2026-04-23 20:01 33.46507 -8.16303 38068 ft 490 kts 29°
2026-04-23 20:02 33.52261 -8.11940 38065 ft 491 kts 29°
2026-04-23 20:02 33.58023 -8.07567 38069 ft 491 kts 29°
2026-04-23 20:03 33.63784 -8.03190 38062 ft 491 kts 29°
2026-04-23 20:03 33.69539 -7.98811 38067 ft 490 kts 29°
2026-04-23 20:04 33.75280 -7.94436 38071 ft 489 kts 30°
2026-04-23 20:04 33.81007 -7.90064 38061 ft 488 kts 30°
2026-04-23 20:05 33.85770 -7.86423 38060 ft 487 kts 30°
2026-04-23 20:05 33.92416 -7.81334 38067 ft 486 kts 30°
2026-04-23 20:06 33.98098 -7.76977 38096 ft 485 kts 31°
2026-04-23 20:06 34.03771 -7.72618 38076 ft 484 kts 31°
2026-04-23 20:07 34.09438 -7.68257 38077 ft 484 kts 31°
2026-04-23 20:07 34.15101 -7.63893 38076 ft 484 kts 31°
2026-04-23 20:08 34.20764 -7.59522 38048 ft 484 kts 31°
2026-04-23 20:08 34.26417 -7.55151 38095 ft 483 kts 31°
2026-04-23 20:09 34.32073 -7.50770 38082 ft 484 kts 31°
2026-04-23 20:09 34.37725 -7.46386 38078 ft 484 kts 31°
2026-04-23 20:10 34.42436 -7.42726 38074 ft 483 kts 31°
2026-04-23 20:10 34.49023 -7.37601 38076 ft 483 kts 31°
2026-04-23 20:11 34.54665 -7.33203 38089 ft 483 kts 32°
2026-04-23 20:11 34.60307 -7.28797 38077 ft 483 kts 32°
2026-04-23 20:12 34.65950 -7.24384 38076 ft 483 kts 32°
2026-04-23 20:12 34.71585 -7.19970 38067 ft 482 kts 32°
2026-04-23 20:13 34.77210 -7.15556 38077 ft 482 kts 32°
2026-04-23 20:13 34.82833 -7.11136 38083 ft 482 kts 32°
2026-04-23 20:14 34.88453 -7.06712 38078 ft 482 kts 32°
2026-04-23 20:14 34.94065 -7.02287 38078 ft 481 kts 32°
2026-04-23 20:15 34.99672 -6.97858 38072 ft 481 kts 32°
2026-04-23 20:15 35.05273 -6.93427 38089 ft 481 kts 32°
2026-04-23 20:16 35.10873 -6.88988 38073 ft 481 kts 32°
2026-04-23 20:16 35.16467 -6.84548 38073 ft 480 kts 32°
2026-04-23 20:17 35.22052 -6.80106 38066 ft 479 kts 32°
2026-04-23 20:17 35.24851 -6.77877 37728 ft 485 kts 32°
2026-04-23 20:17 35.27674 -6.75627 37250 ft 484 kts 33°
2026-04-23 20:17 35.30481 -6.73388 36700 ft 482 kts 33°
2026-04-23 20:18 35.33280 -6.71155 36172 ft 481 kts 33°
2026-04-23 20:18 35.36077 -6.68933 35586 ft 481 kts 32°
2026-04-23 20:18 35.38907 -6.66736 34949 ft 483 kts 32°
2026-04-23 20:18 35.41753 -6.64556 34335 ft 484 kts 32°
2026-04-23 20:19 35.44608 -6.62376 33752 ft 484 kts 32°
2026-04-23 20:19 35.47446 -6.60204 33281 ft 480 kts 32°
2026-04-23 20:19 35.50258 -6.58045 32808 ft 476 kts 33°
2026-04-23 20:19 35.53049 -6.55894 32351 ft 472 kts 33°
2026-04-23 20:20 35.55812 -6.53761 31917 ft 468 kts 33°
2026-04-23 20:20 35.58554 -6.51640 31493 ft 465 kts 33°
2026-04-23 20:20 35.61274 -6.49534 31065 ft 461 kts 33°
2026-04-23 20:20 35.63971 -6.47444 30632 ft 458 kts 33°
2026-04-23 20:21 35.66651 -6.45365 30206 ft 455 kts 33°
2026-04-23 20:21 35.69311 -6.43301 29730 ft 451 kts 33°
2026-04-23 20:21 35.71946 -6.41254 29270 ft 447 kts 33°
2026-04-23 20:21 35.74555 -6.39226 28833 ft 442 kts 33°
2026-04-23 20:22 35.77139 -6.37216 28398 ft 438 kts 33°
2026-04-23 20:22 35.79696 -6.35226 27961 ft 434 kts 33°
2026-04-23 20:22 35.82233 -6.33250 27529 ft 431 kts 33°
2026-04-23 20:22 35.84737 -6.31271 27175 ft 425 kts 35°
2026-04-23 20:23 35.87159 -6.29240 26815 ft 420 kts 36°
2026-04-23 20:23 35.89543 -6.27184 26409 ft 417 kts 36°
2026-04-23 20:23 35.91904 -6.25133 26004 ft 415 kts 36°
2026-04-23 20:23 35.94254 -6.23096 25599 ft 412 kts 36°
2026-04-23 20:24 35.96591 -6.21078 25184 ft 410 kts 36°
2026-04-23 20:24 35.98921 -6.19073 24789 ft 408 kts 36°
2026-04-23 20:24 36.01243 -6.17079 24375 ft 407 kts 36°
2026-04-23 20:24 36.03556 -6.15095 23962 ft 405 kts 36°
2026-04-23 20:25 36.05865 -6.13113 23524 ft 404 kts 36°
2026-04-23 20:25 36.08162 -6.11140 23053 ft 402 kts 36°
2026-04-23 20:25 36.10450 -6.09174 22632 ft 400 kts 36°
2026-04-23 20:25 36.12717 -6.07223 22198 ft 397 kts 36°
2026-04-23 20:26 36.14970 -6.05283 21806 ft 394 kts 36°
2026-04-23 20:26 36.17208 -6.03355 21410 ft 391 kts 36°
2026-04-23 20:26 36.19428 -6.01442 21013 ft 389 kts 36°
2026-04-23 20:26 36.21638 -5.99535 20614 ft 387 kts 36°
2026-04-23 20:27 36.23932 -5.97834 20214 ft 385 kts 25°
2026-04-23 20:27 36.26421 -5.96681 19895 ft 381 kts 14°
2026-04-23 20:27 36.28973 -5.95880 19538 ft 378 kts 13°
2026-04-23 20:27 36.31518 -5.95108 19155 ft 377 kts 13°
2026-04-23 20:28 36.34057 -5.94341 18764 ft 376 kts 13°
2026-04-23 20:28 36.36588 -5.93571 18367 ft 375 kts 13°
2026-04-23 20:28 36.39117 -5.92794 17927 ft 374 kts 13°
2026-04-23 20:28 36.41633 -5.92015 17516 ft 373 kts 13°
2026-04-23 20:29 36.44136 -5.91235 17121 ft 370 kts 14°
2026-04-23 20:29 36.46621 -5.90459 16736 ft 368 kts 14°
2026-04-23 20:29 36.49094 -5.89684 16349 ft 366 kts 14°
2026-04-23 20:29 36.51552 -5.88913 15969 ft 364 kts 14°
2026-04-23 20:30 36.53998 -5.88145 15589 ft 362 kts 14°
2026-04-23 20:30 36.58850 -5.86620 14837 ft 359 kts 14°
2026-04-23 20:30 36.61262 -5.85862 14470 ft 357 kts 14°
2026-04-23 20:31 36.63662 -5.85106 14080 ft 356 kts 14°
2026-04-23 20:31 36.66057 -5.84351 13690 ft 355 kts 14°
2026-04-23 20:31 36.68438 -5.83601 13286 ft 353 kts 14°
2026-04-23 20:31 36.70810 -5.82852 12898 ft 351 kts 14°
2026-04-23 20:32 36.73162 -5.82110 12523 ft 349 kts 14°
2026-04-23 20:32 36.75503 -5.81370 12153 ft 346 kts 14°
2026-04-23 20:32 36.77828 -5.80636 11781 ft 344 kts 14°
2026-04-23 20:32 36.80139 -5.79905 11418 ft 342 kts 14°
2026-04-23 20:33 36.82434 -5.79178 11059 ft 340 kts 14°
2026-04-23 20:33 36.84717 -5.78455 10703 ft 338 kts 14°
2026-04-23 20:33 36.86978 -5.77739 10472 ft 331 kts 14°
2026-04-23 20:33 36.89177 -5.77042 10324 ft 323 kts 14°
2026-04-23 20:34 36.91323 -5.76362 10174 ft 315 kts 14°
2026-04-23 20:34 36.93415 -5.75698 10034 ft 307 kts 14°
2026-04-23 20:34 36.95448 -5.75052 9870 ft 300 kts 14°
2026-04-23 20:34 36.97480 -5.74406 9479 ft 301 kts 14°
2026-04-23 20:35 36.99507 -5.73762 9136 ft 301 kts 14°
2026-04-23 20:35 37.01524 -5.73120 8844 ft 299 kts 14°
2026-04-23 20:35 37.03529 -5.72482 8545 ft 297 kts 14°
2026-04-23 20:35 37.05519 -5.71849 8260 ft 295 kts 14°
2026-04-23 20:36 37.07499 -5.71218 7966 ft 293 kts 14°
2026-04-23 20:36 37.09466 -5.70591 7681 ft 292 kts 15°
2026-04-23 20:36 37.11422 -5.69968 7398 ft 290 kts 16°
2026-04-23 20:36 37.13365 -5.69348 7118 ft 288 kts 16°
2026-04-23 20:37 37.15282 -5.68736 6843 ft 282 kts 16°
2026-04-23 20:37 37.17174 -5.68132 6573 ft 280 kts 16°
2026-04-23 20:37 37.19054 -5.67531 6305 ft 279 kts 17°
2026-04-23 20:37 37.20926 -5.66932 6013 ft 277 kts 16°
2026-04-23 20:38 37.22788 -5.66336 5736 ft 276 kts 16°
2026-04-23 20:38 37.24633 -5.65745 5463 ft 274 kts 17°
2026-04-23 20:38 37.26468 -5.65157 5200 ft 271 kts 17°
2026-04-23 20:38 37.28288 -5.64573 4921 ft 270 kts 17°
2026-04-23 20:39 37.30101 -5.63992 4630 ft 269 kts 16°
2026-04-23 20:39 37.31907 -5.63412 4337 ft 268 kts 15°
2026-04-23 20:39 37.33706 -5.62835 4073 ft 267 kts 16°
2026-04-23 20:39 37.35493 -5.62261 3797 ft 265 kts 15°
2026-04-23 20:40 37.37270 -5.61689 3550 ft 263 kts 14°
2026-04-23 20:40 37.39043 -5.61296 3382 ft 256 kts 355°
2026-04-23 20:40 37.40626 -5.62063 3283 ft 240 kts 314°
2026-04-23 20:40 37.41398 -5.63743 3279 ft 211 kts 276°
2026-04-23 20:41 37.41522 -5.65481 3224 ft 192 kts 272°
2026-04-23 20:41 37.41646 -5.67145 3106 ft 190 kts 274°
2026-04-23 20:41 37.41795 -5.68756 2952 ft 184 kts 271°
2026-04-23 20:41 37.41859 -5.70319 2743 ft 174 kts 269°
2026-04-23 20:42 37.41869 -5.71794 2525 ft 165 kts 265°
2026-04-23 20:42 37.41863 -5.73227 2308 ft 165 kts 265°
2026-04-23 20:42 37.41854 -5.74682 2098 ft 169 kts 265°
2026-04-23 20:42 37.41847 -5.76151 1886 ft 166 kts 267°
2026-04-23 20:43 37.41842 -5.77545 1675 ft 154 kts 267°
2026-04-23 20:43 37.41836 -5.78858 1469 ft 148 kts 266°
2026-04-23 20:43 37.41830 -5.80164 1269 ft 150 kts 267°
2026-04-23 20:43 37.41824 -5.81481 1062 ft 151 kts 267°
2026-04-23 20:44 37.41818 -5.82798 870 ft 151 kts 267°
2026-04-23 20:44 37.41814 -5.84110 674 ft 150 kts 266°
2026-04-23 20:44 37.41807 -5.85426 468 ft 151 kts 267°
2026-04-23 20:44 37.41818 -5.86757 290 ft 152 kts 267°
2026-04-23 20:45 37.41803 -5.88032 108 ft 139 kts 268°
2026-04-23 20:45 37.41794 -5.89091 97 ft 100 kts 270°
2026-04-23 20:45 37.41801 -5.89651 93 ft 28 kts 287°
2026-04-23 20:45 37.41867 -5.89793 93 ft 0 kts 307°
2026-04-23 20:46 37.41891 -5.89822 92 ft 14 kts 327°
2026-04-23 20:46 37.41982 -5.89873 93 ft 11 kts 336°
2026-04-23 20:46 37.42049 -5.89909 94 ft 10 kts 338°
2026-04-23 20:47 37.42116 -5.89926 95 ft 10 kts 13°
2026-04-23 20:47 37.42170 -5.89875 94 ft 10 kts 44°
2026-04-23 20:47 37.42222 -5.89812 93 ft 10 kts 44°
2026-04-23 20:47 37.42242 -5.89791 93 ft 9 kts 27°
2026-04-23 20:48 37.42296 -5.89813 93 ft 3 kts 302°
2026-04-23 20:48 37.42309 -5.89841 94 ft 2 kts 315°